This demonstration page uses our WeatherBlox Daily Observations layout. Learn more.

Left ArrowRight Arrow

40.92501, -98.34201

Hourly Observations for February 22, 2022

Temp ( °F °C ) Dew Point ( °F °C ) Humidity (%) Winds ( mph kmh ) Pressure ( in mb ) Visibility ( mi km ) Precip ( " mm )
12:19 am 00:19 Windy with Snow Likely 3 -16.1 -2 -18.9 79 79 NNW 25 41 30.19 1022 2 3 0.00 0.00
12:44 am 00:44 Windy with Snow Likely 3 -16.1 -2 -18.9 79 79 NNW 23 37 30.20 1023 2 2 0.00 0.00
12:53 am 00:53 Windy with Snow Likely 3 -16.1 -2 -18.9 79 79 NNW 23 37 30.11 1020 2 3 0.00 0.00
1:21 am 01:21 Windy with Snow Likely 3 -16.1 -2 -18.9 79 79 NNW 28 44 30.21 1023 2 3 0.00 0.00
1:36 am 01:36 Windy with Snow Likely 3 -16.1 -2 -18.9 79 79 NNW 23 37 30.21 1023 2 3 0.00 0.00
1:53 am 01:53 Windy with Snow Likely 3 -16.1 -3 -19.4 76 76 N 26 43 30.12 1020 2 3 0.00 0.00
2:30 am 02:30 Windy with Snow Likely 2 -16.7 -3 -19.4 80 80 N 29 46 30.23 1024 2 3 0.00 0.00
2:53 am 02:53 Windy with Snow Likely 2 -16.7 -4 -20 76 76 NNW 25 41 30.15 1021 3 4 0.00 0.00
3:53 am 03:53 Windy with Snow Likely 1 -17.2 -4 -20 79 79 NNW 28 44 30.19 1022 3 4 0.00 0.00
4:07 am 04:07 Windy with Snow Likely 1 -17.2 -5 -20.6 75 75 NNW 26 43 30.27 1025 1 2 0.00 0.00
4:16 am 04:16 Windy with Snow Likely 1 -17.2 -6 -21.1 72 72 NNW 26 43 30.28 1025 1 2 0.00 0.00
4:51 am 04:51 Windy with Snow Likely 1 -17 -6 -21 71 71 NNW 29 46 30.29 1026 2 3 0.00 0.00
4:53 am 04:53 Windy with Snow Likely 1 -17.2 -6 -21.1 72 72 NNW 26 43 30.20 1023 2 3 0.00 0.00
5:03 am 05:03 Windy with Snow Likely 0 -17.8 -6 -21.1 76 76 NNW 26 43 30.30 1026 2 3 0.00 0.00
5:25 am 05:25 Windy with Snow Likely 0 -17.8 -7 -21.7 72 72 NNW 28 44 30.30 1026 3 5 0.00 0.00
5:33 am 05:33 Windy with Snow Likely 0 -17.8 -7 -21.7 72 72 N 30 48 30.30 1026 5 8 0.00 0.00
5:53 am 05:53 Windy with Snow Likely 0 -17.8 -7 -21.7 72 72 NNW 26 43 30.22 1023 5 8 0.00 0.00
6:53 am 06:53 Windy with Snow Likely -1 -18.3 -8 -22.2 72 72 NNW 23 37 30.26 1025 6 10 0.00 0.00
7:08 am 07:08 Windy with Snow Likely -1 -18.3 -8 -22.2 72 72 NNW 29 46 30.33 1027 3 5 0.00 0.00
7:53 am 07:53 Cloudy -1 -18.3 -9 -22.8 68 68 NNW 28 44 30.31 1026 7 11 0.00 0.00
8:53 am 08:53 Windy with Snow Likely 0 -17.8 -9 -22.8 65 65 NNW 25 41 30.37 1028 3 5 0.00 0.00
8:59 am 08:59 Windy with Snow Likely 0 -17.8 -8 -22.2 69 69 NNW 25 41 30.44 1031 2 2 0.00 0.00
9:09 am 09:09 Windy with Snow Likely 0 -17.8 -8 -22.2 69 69 NNW 22 35 30.43 1030 1 2 0.00 0.00
9:44 am 09:44 Windy with Snow Likely 0 -17.8 -8 -22.2 69 69 NNW 31 50 30.44 1031 3 4 0.00 0.00
9:51 am 09:51 Windy with Snow Likely 0 -18 -9 -23 65 65 NNW 25 41 30.45 1031 3 5 0.00 0.00
9:53 am 09:53 Windy with Snow Likely 1 -17.2 -8 -22.2 65 65 NNW 26 43 30.37 1028 2 3 0.00 0.00
10:00 am 10:00 Mostly Cloudy with Light Snow 1 -17.2 -8 -22.2 65 65 NNW 25 41 30.43 1031 3 5 0.00 0.00
10:53 am 10:53 Mostly Cloudy with Light Snow 2 -16.7 -7 -21.7 65 65 NNW 25 41 30.39 1029 8 13 0.00 0.00
11:43 am 11:43 Partly Cloudy with Isolated Snow Showers 5 -15 -5 -20.6 63 63 NNW 24 39 30.43 1030 9 14 0.00 0.00
11:53 am 11:53 Partly Cloudy with Isolated Snow Showers 5 -15 -5 -20.6 63 63 NNW 24 39 30.40 1029 9 14 0.00 0.00
12:16 pm 12:16 Cloudy 7 -13.9 -4 -20 60 60 NNW 26 43 30.46 1031 10 16 0.00 0.00
12:53 pm 12:53 Mostly Cloudy 8 -13.3 -2 -18.9 63 63 NNW 25 41 30.40 1029 10 16 0.01 0.25
1:53 pm 13:53 Mostly Sunny 10 -12.2 -1 -18.3 61 61 NNW 25 41 30.40 1030 10 16 0.00 0.00
2:21 pm 14:21 Mostly Cloudy 10 -12.2 -1 -18.3 61 61 NNW 24 39 30.45 1031 10 16 0.00 0.00
2:48 pm 14:48 Partly Cloudy 10 -12 0 -18 61 61 NNW 25 41 30.46 1031 10 16 0.00 0.00
2:53 pm 14:53 Mostly Sunny 11 -11.7 0 -17.8 61 61 NNW 26 43 30.43 1031 10 16 0.00 0.00
3:53 pm 15:53 Sunny 10 -12.2 -2 -18.9 58 58 N 23 37 30.46 1032 10 16 0.00 0.00
4:53 pm 16:53 Sunny 9 -12.8 -3 -19.4 58 58 NNW 23 37 30.52 1033 10 16 0.00 0.00
5:53 pm 17:53 Cloudy 6 -14.4 -5 -20.6 60 60 NNW 24 39 30.55 1035 10 16 0.00 0.00
6:53 pm 18:53 Clear 4 -15.6 -6 -21.1 63 63 N 20 31 30.60 1036 10 16 0.00 0.00
7:53 pm 19:53 Mostly Clear 2 -16.7 -8 -22.2 63 63 N 22 35 30.65 1038 10 16 0.00 0.00
8:53 pm 20:53 Partly Cloudy 2 -16.7 -8 -22.2 63 63 NNW 23 37 30.69 1039 10 16 0.00 0.00
9:53 pm 21:53 Mostly Clear 0 -17.8 -9 -22.8 65 65 NNW 22 35 30.72 1040 10 16 0.00 0.00
10:53 pm 22:53 Clear -1 -18.3 -11 -23.9 62 62 NNW 21 33 30.72 1040 10 16 0.00 0.00
11:53 pm 23:53 Clear -3 -19.4 -11 -23.9 68 68 NNW 17 28 30.73 1041 10 16 0.00 0.00

Powered by AerisWeather